Location: ?????????
(54.7630°N, 39.4991°E)
Time: 07:44:20
(UTC+00:00)

Cosmos 2061 Rocket - Pass Details

Date: 14 April 2026
Orbit: 965 x 1011 km, 82.9° (Epoch: 12 May)

Event Time Altitude Azimuth Distance (km) Brightness Sun altitude
Exits shadow 22:14:38 52° 225° (SW) 1,188 4.1 -24.6°
Maximum altitude 22:16:04 69° 284° (WNW) 1,036 4.0 -24.6°
Drops below altitude 10° 22:22:16 10° 8° (N) 2,719 7.4 -24.3°
Sets 22:24:49 0° 11° (N) 3,671 8.4 -24.2°
